| time (UTC) | temp F | wind direction | speed MPH | gust MPH | rain 1hr in | rain 24hr in | rain mn in | humidity % | barometer mb |
| 20260507141559 | 55 | 47 | 0.0 | 2.0 | 0.00 | 0.00 | 0.00 | 50 | 1014.7 |
| 20260507140107 | 53 | 0 | 0.0 | 2.0 | 0.00 | 0.00 | 0.00 | 59 | 1014.6 |
| 20260507134601 | 52 | 0 | 0.0 | 2.0 | 0.00 | 0.00 | 0.00 | 62 | 1014.6 |
| 20260507133116 | 51 | 0 | 0.0 | 0.0 | 0.00 | 0.00 | 0.00 | 68 | 1014.5 |
| 20260507131557 | 49 | 0 | 0.0 | 0.0 | 0.00 | 0.00 | 0.00 | 75 | 1014.6 |
| 20260507130110 | 48 | 0 | 0.0 | 0.0 | 0.00 | 0.00 | 0.00 | 76 | 1014.6 |
| 20260507124633 | 46 | 0 | 0.0 | 0.0 | 0.00 | 0.00 | 0.00 | 87 | 1014.6 |
| 20260507123103 | 43 | 0 | 0.0 | 0.0 | 0.00 | 0.00 | 0.00 | 95 | 1014.6 |
| 20260507121557 | 42 | 0 | 0.0 | 0.0 | 0.00 | 0.00 | 0.00 | 96 | 1014.6 |
| 20260507120058 | 40 | 0 | 0.0 | 0.0 | 0.00 | 0.00 | 0.00 | 96 | 1014.5 |
| 20260507114612 | 39 | 0 | 0.0 | 0.0 | 0.00 | 0.00 | 0.00 | 95 | 1014.5 |
| 20260507113058 | 39 | 0 | 0.0 | 0.0 | 0.00 | 0.00 | 0.00 | 95 | 1014.7 |
| 20260507111601 | 39 | 0 | 0.0 | 0.0 | 0.00 | 0.00 | 0.00 | 95 | 1014.6 |
| 20260507110058 | 39 | 0 | 0.0 | 0.0 | 0.00 | 0.00 | 0.00 | 95 | 1014.4 |
| 20260507104558 | 39 | 0 | 0.0 | 0.0 | 0.00 | 0.00 | 0.00 | 95 | 1014.5 |
| 20260507103100 | 40 | 0 | 0.0 | 0.0 | 0.00 | 0.00 | 0.00 | 95 | 1014.4 |
| 20260507101601 | 40 | 0 | 0.0 | 0.0 | 0.00 | 0.00 | 0.00 | 95 | 1014.3 |
| 20260507094601 | 41 | 0 | 0.0 | 0.0 | 0.00 | 0.00 | 0.00 | 96 | 1014.0 |
| 20260507093059 | 41 | 0 | 0.0 | 0.0 | 0.00 | 0.00 | 0.00 | 96 | 1014.0 |
| 20260507091608 | 41 | 0 | 0.0 | 0.0 | 0.00 | 0.00 | 0.00 | 96 | 1013.8 |
| 20260507090106 | 41 | 0 | 0.0 | 0.0 | 0.00 | 0.00 | 0.00 | 96 | 1013.7 |
| 20260507084555 | 41 | 0 | 0.0 | 0.0 | 0.00 | 0.01 | 0.00 | 96 | 1013.6 |
| 20260507083056 | 41 | 0 | 0.0 | 0.0 | 0.00 | 0.01 | 0.00 | 96 | 1013.4 |
| 20260507081555 | 42 | 0 | 0.0 | 0.0 | 0.00 | 0.01 | 0.00 | 96 | 1013.3 |
| 20260507074612 | 43 | 0 | 0.0 | 0.0 | 0.00 | 0.01 | 0.00 | 96 | 1013.3 |
| 20260507073057 | 43 | 0 | 0.0 | 0.0 | 0.00 | 0.01 | 0.00 | 96 | 1013.2 |
| 20260507071557 | 43 | 0 | 0.0 | 0.0 | 0.00 | 0.01 | 0.00 | 96 | 1013.1 |
| 20260507070115 | 43 | 0 | 0.0 | 0.0 | 0.00 | 0.01 | 0.00 | 96 | 1013.1 |
| 20260507064605 | 44 | 0 | 0.0 | 0.0 | 0.00 | 0.09 | 0.00 | 95 | 1013.3 |
| 20260507063100 | 44 | 0 | 0.0 | 0.0 | 0.00 | 0.09 | 0.00 | 96 | 1013.4 |
| 20260507061557 | 44 | 0 | 0.0 | 0.0 | 0.00 | 0.09 | 0.00 | 96 | 1013.4 |
| 20260507060059 | 44 | 0 | 0.0 | 0.0 | 0.00 | 0.09 | 0.00 | 95 | 1013.5 |
| 20260507054557 | 45 | 0 | 0.0 | 0.0 | 0.00 | 0.17 | 0.00 | 96 | 1013.6 |
| 20260507053059 | 44 | 0 | 0.0 | 0.0 | 0.00 | 0.17 | 0.00 | 95 | 1013.5 |
| 20260507051600 | 44 | 0 | 0.0 | 0.0 | 0.00 | 0.17 | 0.00 | 95 | 1013.7 |
| 20260507050056 | 44 | 0 | 0.0 | 0.0 | 0.00 | 0.17 | 0.00 | 95 | 1013.7 |
| 20260507044559 | 44 | 0 | 0.0 | 0.0 | 0.00 | 0.26 | 0.17 | 95 | 1013.5 |
| 20260507043057 | 44 | 0 | 0.0 | 0.0 | 0.00 | 0.26 | 0.17 | 95 | 1013.2 |
| 20260507041600 | 45 | 0 | 0.0 | 0.0 | 0.00 | 0.26 | 0.17 | 94 | 1013.4 |
| 20260507040110 | 45 | 0 | 0.0 | 0.0 | 0.00 | 0.26 | 0.17 | 94 | 1013.3 |
| 20260507034557 | 46 | 0 | 0.0 | 0.0 | 0.00 | 0.34 | 0.17 | 94 | 1013.7 |
| 20260507033102 | 46 | 0 | 0.0 | 0.0 | 0.00 | 0.34 | 0.17 | 93 | 1013.6 |
| 20260507031618 | 46 | 0 | 0.0 | 0.0 | 0.00 | 0.34 | 0.17 | 92 | 1013.7 |
| 20260507030057 | 47 | 0 | 0.0 | 0.0 | 0.00 | 0.34 | 0.17 | 92 | 1013.9 |
| 20260507024556 | 47 | 0 | 0.0 | 0.0 | 0.00 | 0.34 | 0.17 | 91 | 1013.7 |
| 20260507023058 | 47 | 0 | 0.0 | 0.0 | 0.00 | 0.34 | 0.17 | 90 | 1013.3 |
| 20260507021602 | 48 | 0 | 0.0 | 0.0 | 0.00 | 0.34 | 0.17 | 90 | 1013.3 |
| 20260507020059 | 49 | 0 | 0.0 | 0.0 | 0.00 | 0.34 | 0.17 | 88 | 1012.9 |
| 20260507014605 | 49 | 0 | 0.0 | 0.0 | 0.00 | 0.35 | 0.17 | 87 | 1012.7 |
| 20260507013117 | 50 | 0 | 0.0 | 0.0 | 0.00 | 0.35 | 0.17 | 86 | 1012.5 |
| 20260507011609 | 52 | 0 | 0.0 | 0.0 | 0.00 | 0.35 | 0.17 | 84 | 1012.2 |
| 20260507010108 | 53 | 0 | 0.0 | 0.0 | 0.00 | 0.35 | 0.17 | 83 | 1012.3 |
| 20260507004557 | 54 | 0 | 0.0 | 0.0 | 0.00 | 0.36 | 0.17 | 81 | 1012.2 |
| 20260507003059 | 55 | 0 | 0.0 | 0.0 | 0.00 | 0.36 | 0.17 | 78 | 1012.1 |
| 20260507001558 | 56 | 0 | 0.0 | 0.0 | 0.00 | 0.36 | 0.17 | 78 | 1012.2 |
| 20260507000059 | 57 | 0 | 0.0 | 0.0 | 0.00 | 0.36 | 0.17 | 74 | 1012.2 |
| 20260506234558 | 57 | 0 | 0.0 | 0.0 | 0.00 | 0.37 | 0.17 | 68 | 1012.0 |
| 20260506233112 | 58 | 0 | 0.0 | 0.0 | 0.00 | 0.37 | 0.17 | 66 | 1011.9 |
| 20260506231613 | 58 | 0 | 0.0 | 0.0 | 0.00 | 0.37 | 0.17 | 66 | 1011.8 |
| 20260506230106 | 58 | 0 | 0.0 | 0.0 | 0.00 | 0.37 | 0.17 | 64 | 1011.9 |
| 20260506224556 | 59 | 0 | 0.0 | 0.0 | 0.00 | 0.51 | 0.17 | 67 | 1012.2 |
| 20260506223055 | 59 | 0 | 0.0 | 0.0 | 0.00 | 0.51 | 0.17 | 65 | 1012.2 |
| 20260506221600 | 59 | 0 | 0.0 | 0.0 | 0.00 | 0.51 | 0.17 | 64 | 1012.0 |
| 20260506220100 | 59 | 0 | 0.0 | 0.0 | 0.00 | 0.51 | 0.17 | 64 | 1011.7 |
| 20260506214600 | 59 | 0 | 0.0 | 0.0 | 0.00 | 0.65 | 0.17 | 65 | 1011.5 |
| 20260506213056 | 59 | 0 | 0.0 | 1.0 | 0.00 | 0.65 | 0.17 | 66 | 1011.4 |
| 20260506211608 | 59 | 0 | 0.0 | 2.0 | 0.00 | 0.65 | 0.17 | 63 | 1011.2 |
| 20260506210056 | 60 | 0 | 0.0 | 0.0 | 0.00 | 0.65 | 0.17 | 65 | 1011.6 |
| 20260506204555 | 60 | 0 | 0.0 | 1.0 | 0.00 | 0.68 | 0.17 | 64 | 1012.2 |
| 20260506203058 | 60 | 0 | 0.0 | 0.0 | 0.00 | 0.68 | 0.17 | 63 | 1011.9 |
| 20260506201604 | 61 | 0 | 0.0 | 0.0 | 0.00 | 0.68 | 0.17 | 60 | 1011.8 |
| 20260506200059 | 61 | 0 | 0.0 | 1.0 | 0.00 | 0.68 | 0.17 | 60 | 1011.9 |
| 20260506194609 | 62 | 0 | 0.0 | 5.0 | 0.00 | 0.84 | 0.17 | 60 | 1011.6 |
| 20260506193058 | 61 | 0 | 0.0 | 2.0 | 0.00 | 0.84 | 0.17 | 60 | 1011.6 |
| 20260506191557 | 61 | 0 | 0.0 | 3.0 | 0.00 | 0.84 | 0.17 | 59 | 1011.9 |
| 20260506190059 | 61 | 0 | 0.0 | 1.0 | 0.00 | 0.84 | 0.17 | 57 | 1011.9 |
| 20260506184607 | 61 | 0 | 0.0 | 4.0 | 0.00 | 0.91 | 0.17 | 58 | 1011.5 |
| 20260506183059 | 61 | 0 | 0.0 | 0.0 | 0.00 | 0.91 | 0.17 | 57 | 1011.6 |
| 20260506181556 | 60 | 0 | 0.0 | 0.0 | 0.00 | 0.91 | 0.17 | 58 | 1011.4 |
| 20260506174556 | 61 | 0 | 0.0 | 4.0 | 0.00 | 0.92 | 0.17 | 60 | 1011.6 |
| 20260506173108 | 60 | 0 | 0.0 | 0.0 | 0.00 | 0.92 | 0.17 | 62 | 1011.7 |
| 20260506171558 | 60 | 0 | 0.0 | 3.0 | 0.00 | 0.92 | 0.17 | 61 | 1011.8 |
| 20260506170105 | 60 | 0 | 0.0 | 4.0 | 0.00 | 0.92 | 0.17 | 63 | 1011.6 |
| 20260506164613 | 59 | 0 | 0.0 | 2.0 | 0.00 | 0.92 | 0.17 | 63 | 1011.8 |
| 20260506163102 | 59 | 0 | 0.0 | 0.0 | 0.00 | 0.92 | 0.17 | 64 | 1012.2 |
| 20260506161556 | 57 | 0 | 0.0 | 2.0 | 0.00 | 0.92 | 0.17 | 63 | 1012.1 |
| 20260506160108 | 57 | 0 | 0.0 | 0.0 | 0.00 | 0.92 | 0.17 | 66 | 1012.2 |
| 20260506154558 | 56 | 0 | 0.0 | 1.0 | 0.00 | 0.92 | 0.17 | 73 | 1012.4 |
| 20260506153101 | 55 | 0 | 0.0 | 1.0 | 0.00 | 0.92 | 0.17 | 72 | 1012.1 |
| 20260506151556 | 54 | 53 | 0.0 | 6.0 | 0.00 | 0.92 | 0.17 | 70 | 1011.9 |
| 20260506150057 | 54 | 0 | 0.0 | 1.0 | 0.00 | 0.92 | 0.17 | 75 | 1011.5 |
| 20260506144600 | 52 | 0 | 0.0 | 3.0 | 0.00 | 0.92 | 0.17 | 78 | 1011.5 |
| 20260506143055 | 51 | 0 | 0.0 | 4.0 | 0.00 | 0.92 | 0.17 | 79 | 1011.4 |